Weather History for Pine Ridge, SD

Change the Weather History Date:

Tuesday, January 1, 2013

  Actual Average Record
Temperature  
Mean Temperature 11 °F 22 °F  
Max Temperature 29 °F 36 °F 57 °F (1998)
Min Temperature -7 °F 9 °F -9 °F (2002)
Degree Days  
Heating Degree Days 54 43  
Month to date heating degree days 54 43  
Since 1 July heating degree days 2857 3033  
Cooling Degree Days 0 0  
Month to date cooling degree days 0 0  
Year to date cooling degree days 0 0  
Moisture  
Dew Point 13 °F    
Average Humidity 77    
Maximum Humidity 92    
Minimum Humidity 62    
Precipitation  
Precipitation T in 0.01 in 0.09 in (2006)
Month to date precipitation T 0.01  
Year to date precipitation T 0.01  
Sea Level Pressure  
Sea Level Pressure 30.17 in    
Wind  
Wind Speed 7 mph (WNW)    
Max Wind Speed 20 mph    
Max Gust Speed 26 mph    
Visibility 7 miles    
Events Snow    
T = Trace of Precipitation, MM = Missing Value Source: NWS Daily Summary

Daily Weather History Graph

Daily Weather History Graph

Search for Another Location

Airport:

Trip Planner

Search our weather history database for the weather conditions in past years. The results will help you decide how hot, cold, wet, or windy it might be!

Date:

Astronomy

Jan. 01, 2013 Rise Set
Actual Time 7:21 AM MST 4:26 PM MST
Civil Twilight 6:49 AM MST 4:58 PM MST
Nautical Twilight 6:13 AM MST 5:34 PM MST
Astronomical Twilight 5:39 AM MST 6:08 PM MST
Moon 9:07 PM MST (1/1) 9:27 AM MST (1/1)
Length of Visible Light 10h 09m
Length of Day
9h 04m
Waning Gibbous, 83% of the Moon is Illuminated
Jan 1
Waning Gibbous
Jan 4
Last Quarter
Jan 11
New
Jan 18
First Quarter
Jan 26
Full

Hourly Weather History & Observations

Time (MST) Temp. Windchill Dew Point Humidity Pressure Visibility Wind Dir Wind Speed Gust Speed Precip Events Conditions
12:52 AM 10.0 °F 1.8 °F 6.1 °F 84% 30.23 in 10.0 mi WSW 4.6 mph - N/A   Clear
1:52 AM 7.0 °F - 3.9 °F 87% 30.24 in 10.0 mi Calm Calm - N/A   Clear
2:52 AM 3.0 °F - -0.9 °F 84% 30.26 in 10.0 mi Calm Calm - N/A   Clear
3:52 AM -0.9 °F -8.9 °F -6.0 °F 79% 30.28 in 10.0 mi ENE 3.5 mph - N/A   Clear
4:52 AM -2.0 °F - -7.1 °F 79% 30.30 in 10.0 mi Calm Calm - N/A   Clear
5:52 AM -4.0 °F - -9.0 °F 79% 30.30 in 10.0 mi Calm Calm - N/A   Clear
6:52 AM -5.1 °F - -11.0 °F 76% 30.32 in 10.0 mi Calm Calm - N/A   Clear
7:52 AM 5.0 °F -2.1 °F 1.0 °F 84% 30.30 in 10.0 mi West 3.5 mph - N/A   Clear
8:52 AM 14.0 °F 3.9 °F 9.0 °F 80% 30.28 in 10.0 mi WSW 6.9 mph - N/A   Clear
9:52 AM 19.0 °F 6.1 °F 12.0 °F 74% 30.28 in 10.0 mi WSW 12.7 mph - N/A   Clear
10:52 AM 21.9 °F 11.0 °F 12.0 °F 66% 30.26 in 10.0 mi WSW 10.4 mph - N/A   Clear
11:52 AM 25.0 °F 17.1 °F 14.0 °F 63% 30.22 in 10.0 mi West 6.9 mph - N/A   Clear
12:52 PM 27.0 °F 20.5 °F 16.0 °F 63% 30.17 in 10.0 mi West 5.8 mph - N/A   Clear
1:52 PM 28.0 °F 18.6 °F 17.1 °F 63% 30.16 in 10.0 mi West 10.4 mph 17.3 mph N/A   Clear
2:52 PM 28.9 °F 18.6 °F 18.0 °F 64% 30.16 in 10.0 mi West 12.7 mph 18.4 mph N/A   Clear
3:52 PM 28.0 °F 17.0 °F 18.0 °F 66% 30.16 in 10.0 mi West 13.8 mph - N/A   Clear
4:52 PM 25.0 °F 14.2 °F 16.0 °F 69% 30.17 in 10.0 mi West 11.5 mph - N/A   Clear
5:52 PM 23.0 °F 15.8 °F 15.1 °F 72% 30.19 in 10.0 mi West 5.8 mph - N/A   Clear
6:52 PM 21.9 °F 13.4 °F 15.1 °F 75% 30.20 in 10.0 mi West 6.9 mph - N/A   Scattered Clouds
7:52 PM 24.1 °F 14.4 °F 16.0 °F 71% 30.16 in 10.0 mi WSW 9.2 mph - N/A   Overcast
8:52 PM 25.0 °F 17.1 °F 17.1 °F 72% 30.14 in 10.0 mi West 6.9 mph - N/A   Overcast
9:48 PM 26.6 °F 20.0 °F 19.4 °F 74% 30.03 in 4.0 mi NW 5.8 mph - 0.00 in Snow Light Snow
9:52 PM 26.1 °F 18.4 °F 19.9 °F 78% 30.16 in 3.0 mi WNW 6.9 mph - 0.00 in Snow Light Snow
10:00 PM 26.6 °F 19.1 °F 21.2 °F 80% 30.04 in 1.8 mi WNW 6.9 mph - 0.00 in Snow Light Snow
10:28 PM 24.8 °F 17.9 °F 23.0 °F 93% 30.05 in 1.0 mi NW 5.8 mph - 0.00 in Snow Light Snow
10:36 PM 24.8 °F - 23.0 °F 93% 30.05 in 0.8 mi Calm Calm - 0.00 in Snow Light Snow
10:52 PM 25.0 °F 19.3 °F 23.0 °F 92% 30.17 in 1.0 mi West 4.6 mph - 0.00 in Snow Light Snow
11:07 PM 26.6 °F 20.0 °F 23.0 °F 86% 30.05 in 3.0 mi NW 5.8 mph - 0.00 in Snow Light Snow
11:19 PM 26.6 °F 16.8 °F 23.0 °F 86% 30.04 in 4.0 mi North 10.4 mph - 0.00 in Snow Light Snow
11:26 PM 28.4 °F 17.0 °F 23.0 °F 80% 30.04 in 4.0 mi North 15.0 mph 21.9 mph 0.00 in Snow Light Snow
11:40 PM 28.4 °F 16.2 °F 23.0 °F 80% 30.04 in 2.5 mi North 17.3 mph 24.2 mph 0.00 in Snow Light Snow
11:52 PM 28.0 °F 17.0 °F 24.1 °F 85% 30.15 in 1.8 mi NNW 13.8 mph 26.5 mph 0.00 in Snow Light Snow